Location: Oregon Trail
(41.1872°N, 102.0741°W)
Time: 20:48:18
(UTC+00:00)

NOSS 3-4 (A) - Pass Details

Date: 19 November 2019
Orbit: 907 x 1306 km, 63.4° (Epoch: 11 December)

Event Time Altitude Azimuth Distance (km) Brightness Sun altitude
Exits shadow 12:12:22 13° 324° (NW) 2,770 5.4 -16.6°
Maximum altitude 12:18:57 85° 237° (WSW) 1,189 3.9 -15.4°
Drops below altitude 10° 12:26:45 10° 150° (SSE) 3,222 6.8 -13.9°
Sets 12:29:38 0° 150° (SSE) 4,223 7.5 -13.4°
